Time,TemperatureF,DewpointF,PressureIn,WindDirection,WindDirectionDegrees,WindSpeedMPH,WindSpeedGustMPH,Humidity,HourlyPrecipIn,Conditions,Clouds,dailyrainin,SoftwareType,DateUTC
2013-07-24 00:00:00,64.9,59.3,28.85,North,360,5.0,5.0,82,0.00,,,0.00,Wunderground v.1.15,2013-07-24 04:00:00,
2013-07-24 00:04:00,64.9,59.6,28.86,NNE,15,5.0,5.0,83,0.00,,,0.00,Wunderground v.1.15,2013-07-24 04:04:00,
2013-07-24 00:10:00,64.9,59.3,28.85,NNE,26,4.0,6.0,82,0.00,,,0.00,Wunderground v.1.15,2013-07-24 04:10:00,
2013-07-24 00:15:00,64.9,59.3,28.86,NNE,30,5.0,6.0,82,0.00,,,0.00,Wunderground v.1.15,2013-07-24 04:15:00,
2013-07-24 00:20:00,64.8,59.2,28.86,NNE,13,5.0,5.0,82,0.00,,,0.00,Wunderground v.1.15,2013-07-24 04:20:00,
2013-07-24 00:25:00,64.9,59.3,28.86,NNW,348,3.0,5.0,82,0.00,,,0.00,Wunderground v.1.15,2013-07-24 04:25:00,
2013-07-24 00:30:00,64.9,59.3,28.86,NNW,339,3.0,4.0,82,0.00,,,0.00,Wunderground v.1.15,2013-07-24 04:30:00,
2013-07-24 00:35:00,64.9,58.9,28.86,NW,323,3.0,4.0,81,0.00,,,0.00,Wunderground v.1.15,2013-07-24 04:35:00,
2013-07-24 00:40:00,64.8,58.8,28.86,North,355,3.0,3.0,81,0.00,,,0.00,Wunderground v.1.15,2013-07-24 04:40:00,
2013-07-24 00:45:00,64.8,58.5,28.86,North,9,3.0,3.0,80,0.00,,,0.00,Wunderground v.1.15,2013-07-24 04:45:00,
2013-07-24 00:50:00,64.7,58.4,28.86,NNW,346,4.0,4.0,80,0.00,,,0.00,Wunderground v.1.15,2013-07-24 04:50:00,
2013-07-24 00:59:00,64.7,58.4,28.87,North,360,3.0,3.0,80,0.00,,,0.00,Wunderground v.1.15,2013-07-24 04:59:00,
2013-07-24 01:04:00,64.7,58.4,28.87,NNE,14,4.0,6.0,80,0.00,,,0.00,Wunderground v.1.15,2013-07-24 05:04:00,
2013-07-24 01:09:00,64.6,58.3,28.87,North,355,4.0,4.0,80,0.00,,,0.00,Wunderground v.1.15,2013-07-24 05:09:00,
2013-07-24 01:15:00,64.5,58.2,28.87,North,355,4.0,10.0,80,0.00,,,0.00,Wunderground v.1.15,2013-07-24 05:15:00,
2013-07-24 01:20:00,64.5,58.2,28.87,North,11,4.0,4.0,80,0.00,,,0.00,Wunderground v.1.15,2013-07-24 05:20:00,
2013-07-24 01:25:00,64.3,58.0,28.87,NNW,347,4.0,10.0,80,0.00,,,0.00,Wunderground v.1.15,2013-07-24 05:25:00,
2013-07-24 01:30:00,64.3,58.3,28.87,NNW,348,5.0,5.0,81,0.00,,,0.00,Wunderground v.1.15,2013-07-24 05:30:00,
2013-07-24 01:35:00,64.2,58.2,28.88,North,355,4.0,10.0,81,0.00,,,0.00,Wunderground v.1.15,2013-07-24 05:35:00,
2013-07-24 01:40:00,64.1,58.1,28.87,North,355,4.0,10.0,81,0.00,,,0.00,Wunderground v.1.15,2013-07-24 05:40:00,
2013-07-24 01:50:00,63.6,58.0,28.87,North,350,4.0,10.0,82,0.00,,,0.00,Wunderground v.1.15,2013-07-24 05:50:00,
2013-07-24 01:55:00,63.4,57.8,28.87,NNW,348,3.0,10.0,82,0.00,,,0.00,Wunderground v.1.15,2013-07-24 05:55:00,
2013-07-24 02:00:00,63.3,58.0,28.87,NNW,341,3.0,3.0,83,0.00,,,0.00,Wunderground v.1.15,2013-07-24 06:00:00,
2013-07-24 02:05:00,63.2,57.9,28.87,NNW,340,3.0,4.0,83,0.00,,,0.00,Wunderground v.1.15,2013-07-24 06:05:00,
2013-07-24 02:10:00,63.1,58.2,28.88,North,350,3.0,3.0,84,0.00,,,0.00,Wunderground v.1.15,2013-07-24 06:10:00,
2013-07-24 02:20:00,62.9,58.3,28.88,NNE,13,3.0,3.0,85,0.00,,,0.00,Wunderground v.1.15,2013-07-24 06:20:00,
2013-07-24 02:25:00,62.9,58.3,28.88,NNW,342,3.0,10.0,85,0.00,,,0.00,Wunderground v.1.15,2013-07-24 06:25:00,
2013-07-24 02:30:00,62.9,58.3,28.88,NNW,338,3.0,10.0,85,0.00,,,0.00,Wunderground v.1.15,2013-07-24 06:30:00,
2013-07-24 02:39:00,63.1,58.5,28.88,NW,326,3.0,3.0,85,0.00,,,0.00,Wunderground v.1.15,2013-07-24 06:39:00,
2013-07-24 02:44:00,63.1,58.5,28.89,NNW,338,3.0,4.0,85,0.00,,,0.00,Wunderground v.1.15,2013-07-24 06:44:00,
2013-07-24 02:50:00,63.1,58.5,28.89,NNW,336,3.0,10.0,85,0.00,,,0.00,Wunderground v.1.15,2013-07-24 06:50:00,
2013-07-24 02:55:00,63.2,58.9,28.89,NNW,341,3.0,10.0,86,0.00,,,0.00,Wunderground v.1.15,2013-07-24 06:55:00,
2013-07-24 03:00:00,63.2,58.9,28.90,NNW,343,2.0,10.0,86,0.00,,,0.00,Wunderground v.1.15,2013-07-24 07:00:00,
2013-07-24 03:05:00,63.2,58.9,28.90,NNW,329,3.0,10.0,86,0.00,,,0.00,Wunderground v.1.15,2013-07-24 07:05:00,
2013-07-24 03:14:00,63.2,58.9,28.90,NW,313,2.0,4.0,86,0.00,,,0.00,Wunderground v.1.15,2013-07-24 07:14:00,
2013-07-24 03:19:00,63.2,58.9,28.90,NW,319,3.0,10.0,86,0.00,,,0.00,Wunderground v.1.15,2013-07-24 07:19:00,
2013-07-24 03:25:00,63.1,58.8,28.90,NW,326,3.0,10.0,86,0.00,,,0.00,Wunderground v.1.15,2013-07-24 07:25:00,
2013-07-24 03:30:00,63.1,58.8,28.90,NNW,346,3.0,3.0,86,0.00,,,0.00,Wunderground v.1.15,2013-07-24 07:30:00,
2013-07-24 03:35:00,63.1,59.2,28.90,NNW,346,3.0,10.0,87,0.00,,,0.00,Wunderground v.1.15,2013-07-24 07:35:00,
2013-07-24 03:40:00,63.1,59.2,28.90,NNW,337,3.0,10.0,87,0.00,,,0.00,Wunderground v.1.15,2013-07-24 07:40:00,
2013-07-24 03:45:00,63.1,59.2,28.90,NNW,336,3.0,10.0,87,0.00,,,0.00,Wunderground v.1.15,2013-07-24 07:45:00,
2013-07-24 03:50:00,63.1,59.2,28.91,North,350,3.0,10.0,87,0.00,,,0.00,Wunderground v.1.15,2013-07-24 07:50:00,
2013-07-24 04:00:00,63.1,59.2,28.91,NNW,344,4.0,4.0,87,0.00,,,0.00,Wunderground v.1.15,2013-07-24 08:00:00,
2013-07-24 04:05:00,63.1,59.2,28.91,North,360,3.0,10.0,87,0.00,,,0.00,Wunderground v.1.15,2013-07-24 08:05:00,
2013-07-24 04:10:00,63.0,59.1,28.91,North,11,4.0,10.0,87,0.00,,,0.00,Wunderground v.1.15,2013-07-24 08:10:00,
2013-07-24 04:15:00,62.8,58.9,28.91,NE,39,4.0,10.0,87,0.00,,,0.00,Wunderground v.1.15,2013-07-24 08:15:00,
2013-07-24 04:20:00,62.6,58.0,28.92,NNE,30,5.0,10.0,85,0.00,,,0.00,Wunderground v.1.15,2013-07-24 08:20:00,
2013-07-24 04:30:00,62.5,56.9,28.92,NE,45,6.0,6.0,82,0.00,,,0.00,Wunderground v.1.15,2013-07-24 08:30:00,
2013-07-24 04:35:00,62.5,56.6,28.92,NE,46,6.0,10.0,81,0.00,,,0.00,Wunderground v.1.15,2013-07-24 08:35:00,
2013-07-24 04:40:00,62.5,56.2,28.92,NE,49,6.0,10.0,80,0.00,,,0.00,Wunderground v.1.15,2013-07-24 08:40:00,
2013-07-24 04:45:00,62.3,55.7,28.92,NE,51,7.0,17.0,79,0.00,,,0.00,Wunderground v.1.15,2013-07-24 08:45:00,
2013-07-24 04:50:00,62.1,55.2,28.92,NE,46,8.0,8.0,78,0.00,,,0.00,Wunderground v.1.15,2013-07-24 08:50:00,
2013-07-24 04:55:00,62.0,55.1,28.93,NE,36,8.0,10.0,78,0.00,,,0.00,Wunderground v.1.15,2013-07-24 08:55:00,
2013-07-24 05:04:00,61.7,54.8,28.93,NE,46,7.0,10.0,78,0.00,,,0.00,Wunderground v.1.15,2013-07-24 09:04:00,
2013-07-24 05:09:00,61.5,54.6,28.93,NE,42,7.0,7.0,78,0.00,,,0.00,Wunderground v.1.15,2013-07-24 09:09:00,
2013-07-24 05:14:00,61.3,54.4,28.94,NE,36,8.0,8.0,78,0.00,,,0.01,Wunderground v.1.15,2013-07-24 09:14:00,
2013-07-24 05:19:00,61.2,54.3,28.94,NNE,31,8.0,8.0,78,0.00,,,0.01,Wunderground v.1.15,2013-07-24 09:19:00,
2013-07-24 05:24:00,61.1,54.2,28.94,NE,45,7.0,10.0,78,0.00,,,0.01,Wunderground v.1.15,2013-07-24 09:24:00,
2013-07-24 05:34:00,60.7,53.8,28.95,NE,51,8.0,10.0,78,0.00,,,0.01,Wunderground v.1.15,2013-07-24 09:34:00,
2013-07-24 05:39:00,60.5,53.6,28.95,ENE,58,8.0,8.0,78,0.00,,,0.01,Wunderground v.1.15,2013-07-24 09:39:00,
2013-07-24 05:44:00,60.4,53.9,28.95,NE,56,6.0,10.0,79,0.00,,,0.01,Wunderground v.1.15,2013-07-24 09:44:00,
2013-07-24 05:49:00,60.2,53.7,28.95,East,86,6.0,6.0,79,0.00,,,0.01,Wunderground v.1.15,2013-07-24 09:49:00,
2013-07-24 05:54:00,60.1,53.6,28.95,NE,52,6.0,10.0,79,0.00,,,0.01,Wunderground v.1.15,2013-07-24 09:54:00,
2013-07-24 05:59:00,59.9,53.4,28.96,NE,55,7.0,10.0,79,0.00,,,0.01,Wunderground v.1.15,2013-07-24 09:59:00,
2013-07-24 06:09:00,59.7,53.5,28.96,NE,52,6.0,6.0,80,0.00,,,0.01,Wunderground v.1.15,2013-07-24 10:09:00,
2013-07-24 06:14:00,59.6,53.4,28.97,ENE,65,6.0,10.0,80,0.00,,,0.01,Wunderground v.1.15,2013-07-24 10:14:00,
2013-07-24 06:19:00,59.5,53.3,28.97,NE,55,6.0,11.0,80,0.00,,,0.01,Wunderground v.1.15,2013-07-24 10:19:00,
2013-07-24 06:24:00,59.4,53.2,28.97,NE,47,7.0,11.0,80,0.00,,,0.01,Wunderground v.1.15,2013-07-24 10:24:00,
2013-07-24 06:29:00,59.2,53.0,28.97,NE,40,7.0,10.0,80,0.00,,,0.01,Wunderground v.1.15,2013-07-24 10:29:00,
2013-07-24 06:35:00,59.0,52.8,28.98,ENE,61,8.0,10.0,80,0.00,,,0.01,Wunderground v.1.15,2013-07-24 10:35:00,
2013-07-24 06:40:00,58.9,52.7,28.98,ENE,62,7.0,7.0,80,0.00,,,0.01,Wunderground v.1.15,2013-07-24 10:40:00,
2013-07-24 06:45:00,58.9,52.7,28.98,NE,55,6.0,8.0,80,0.00,,,0.01,Wunderground v.1.15,2013-07-24 10:45:00,
2013-07-24 06:50:00,58.9,52.7,28.98,NE,35,6.0,6.0,80,0.00,,,0.01,Wunderground v.1.15,2013-07-24 10:50:00,
2013-07-24 06:55:00,58.8,52.3,28.98,NNE,29,7.0,7.0,79,0.00,,,0.01,Wunderground v.1.15,2013-07-24 10:55:00,
2013-07-24 07:04:00,58.7,52.2,28.99,NNE,21,8.0,9.0,79,0.00,,,0.01,Wunderground v.1.15,2013-07-24 11:04:00,
2013-07-24 07:10:00,58.6,51.4,28.99,ENE,67,9.0,9.0,77,0.00,,,0.01,Wunderground v.1.15,2013-07-24 11:10:00,
2013-07-24 07:15:00,58.6,51.8,28.99,NE,54,8.0,10.0,78,0.00,,,0.01,Wunderground v.1.15,2013-07-24 11:15:00,
2013-07-24 07:20:00,58.6,51.4,29.00,NE,38,8.0,10.0,77,0.00,,,0.01,Wunderground v.1.15,2013-07-24 11:20:00,
2013-07-24 07:25:00,58.5,51.0,29.00,NE,35,10.0,10.0,76,0.00,,,0.01,Wunderground v.1.15,2013-07-24 11:25:00,
2013-07-24 07:30:00,58.4,51.2,29.00,NE,40,11.0,11.0,77,0.00,,,0.01,Wunderground v.1.15,2013-07-24 11:30:00,
2013-07-24 07:35:00,58.7,51.5,29.00,NE,49,9.0,11.0,77,0.00,,,0.01,Wunderground v.1.15,2013-07-24 11:35:00,
2013-07-24 07:45:00,60.7,53.1,29.00,NE,44,7.0,10.0,76,0.00,,,0.01,Wunderground v.1.15,2013-07-24 11:45:00,
2013-07-24 07:50:00,61.1,52.4,29.01,NE,48,6.0,10.0,73,0.00,,,0.01,Wunderground v.1.15,2013-07-24 11:50:00,
2013-07-24 07:55:00,60.9,51.8,29.01,ENE,67,7.0,10.0,72,0.00,,,0.01,Wunderground v.1.15,2013-07-24 11:55:00,
2013-07-24 08:00:00,60.8,52.5,29.01,ENE,59,8.0,10.0,74,0.00,,,0.01,Wunderground v.1.15,2013-07-24 12:00:00,
2013-07-24 08:05:00,61.0,51.9,29.02,NNE,32,9.0,10.0,72,0.00,,,0.01,Wunderground v.1.15,2013-07-24 12:05:00,
2013-07-24 08:14:00,60.3,51.6,29.02,NE,45,10.0,12.0,73,0.00,,,0.01,Wunderground v.1.15,2013-07-24 12:14:00,
2013-07-24 08:19:00,59.3,51.0,29.03,NNE,26,10.0,10.0,74,0.00,,,0.01,Wunderground v.1.15,2013-07-24 12:19:00,
2013-07-24 08:24:00,58.8,50.9,29.03,NE,43,9.0,10.0,75,0.00,,,0.01,Wunderground v.1.15,2013-07-24 12:24:00,
2013-07-24 08:29:00,58.7,51.2,29.03,ENE,65,7.0,10.0,76,0.00,,,0.01,Wunderground v.1.15,2013-07-24 12:29:00,
2013-07-24 08:35:00,59.6,51.3,29.03,NE,34,9.0,10.0,74,0.00,,,0.01,Wunderground v.1.15,2013-07-24 12:35:00,
2013-07-24 08:39:00,60.5,51.0,29.04,NE,40,10.0,10.0,71,0.00,,,0.01,Wunderground v.1.15,2013-07-24 12:39:00,
2013-07-24 08:49:00,60.0,51.3,29.04,ESE,108,11.0,14.0,73,0.00,,,0.01,Wunderground v.1.15,2013-07-24 12:49:00,
2013-07-24 08:54:00,59.1,50.8,29.04,NE,51,11.0,14.0,74,0.00,,,0.01,Wunderground v.1.15,2013-07-24 12:54:00,
2013-07-24 08:59:00,59.1,51.5,29.04,NE,47,10.0,10.0,76,0.00,,,0.01,Wunderground v.1.15,2013-07-24 12:59:00,
2013-07-24 09:04:00,60.4,52.1,29.04,ENE,65,9.0,12.0,74,0.00,,,0.01,Wunderground v.1.15,2013-07-24 13:04:00,
2013-07-24 09:09:00,60.2,51.1,29.04,NE,46,9.0,10.0,72,0.00,,,0.01,Wunderground v.1.15,2013-07-24 13:09:00,
2013-07-24 09:19:00,60.3,52.0,29.05,NE,34,7.0,7.0,74,0.00,,,0.01,Wunderground v.1.15,2013-07-24 13:19:00,
2013-07-24 09:24:00,60.3,52.0,29.05,East,84,7.0,10.0,74,0.00,,,0.01,Wunderground v.1.15,2013-07-24 13:24:00,
2013-07-24 09:29:00,60.2,52.6,29.06,NE,41,7.0,10.0,76,0.00,,,0.01,Wunderground v.1.15,2013-07-24 13:29:00,
2013-07-24 09:34:00,60.0,51.7,29.06,NE,52,6.0,10.0,74,0.00,,,0.01,Wunderground v.1.15,2013-07-24 13:34:00,
2013-07-24 09:39:00,59.5,51.6,29.06,ENE,71,7.0,7.0,75,0.00,,,0.01,Wunderground v.1.15,2013-07-24 13:39:00,
2013-07-24 09:44:00,59.3,51.4,29.06,NE,40,7.0,10.0,75,0.00,,,0.01,Wunderground v.1.15,2013-07-24 13:44:00,
2013-07-24 09:54:00,59.0,51.8,29.07,NNE,33,5.0,7.0,77,0.00,,,0.01,Wunderground v.1.15,2013-07-24 13:54:00,
2013-07-24 09:59:00,58.8,51.6,29.07,NE,35,5.0,10.0,77,0.00,,,0.01,Wunderground v.1.15,2013-07-24 13:59:00,
2013-07-24 10:04:00,58.6,51.4,29.07,NE,46,6.0,10.0,77,0.00,,,0.01,Wunderground v.1.15,2013-07-24 14:04:00,
2013-07-24 10:09:00,58.6,51.8,29.07,ENE,68,6.0,10.0,78,0.00,,,0.01,Wunderground v.1.15,2013-07-24 14:09:00,
2013-07-24 10:14:00,58.4,51.6,29.08,NE,55,6.0,10.0,78,0.00,,,0.01,Wunderground v.1.15,2013-07-24 14:14:00,
2013-07-24 10:24:00,58.7,52.2,29.08,NE,42,6.0,10.0,79,0.00,,,0.01,Wunderground v.1.15,2013-07-24 14:24:00,
2013-07-24 10:29:00,58.8,51.6,29.08,NE,47,5.0,10.0,77,0.00,,,0.01,Wunderground v.1.15,2013-07-24 14:29:00,
2013-07-24 10:34:00,58.8,51.6,29.08,NE,37,7.0,10.0,77,0.00,,,0.01,Wunderground v.1.15,2013-07-24 14:34:00,
2013-07-24 10:39:00,59.0,52.1,29.09,NNE,18,7.0,7.0,78,0.00,,,0.01,Wunderground v.1.15,2013-07-24 14:39:00,
2013-07-24 10:45:00,59.1,51.9,29.09,NE,36,6.0,10.0,77,0.00,,,0.01,Wunderground v.1.15,2013-07-24 14:45:00,
2013-07-24 10:54:00,58.9,51.7,29.09,ENE,74,6.0,10.0,77,0.00,,,0.01,Wunderground v.1.15,2013-07-24 14:54:00,
2013-07-24 11:00:00,59.2,52.0,29.09,NE,47,6.0,10.0,77,0.00,,,0.01,Wunderground v.1.15,2013-07-24 15:00:00,
2013-07-24 11:09:00,59.0,51.8,29.09,NE,49,5.0,10.0,77,0.00,,,0.01,Wunderground v.1.15,2013-07-24 15:09:00,